Location: Boitzum
(52.1496°N, 9.6943°E)
Time: 23:18:12
(UTC+00:00)

Meteor 2-10 Rocket - Pass Details

Date: 13 January 2026
Orbit: 733 x 881 km, 81.2° (Epoch: 9 February)

Event Time Altitude Azimuth Distance (km) Brightness Sun altitude
Rises 06:16:46 0° 216° (SW) 3,173 6.6 -10.0°
Reaches altitude 10° 06:19:12 10° 224° (SW) 2,267 5.7 -9.6°
Maximum altitude 06:23:56 38° 293° (WNW) 1,159 4.0 -8.9°
Drops below altitude 10° 06:28:52 10° 1° (N) 2,358 5.8 -8.3°
Sets 06:31:28 0° 10° (N) 3,316 6.6 -7.9°
